H1 CPF 1 NER 2017 3 30 9 5891 glonass103 H2 0606202 9103 29671 2017 3 30 0 0 0 2017 4 2 23 45 0 900 1 1 0 0 0 H9 10 0 57842 0.00000 0 -10827997.626 -2191846.741 22971748.203 10 0 57842 900.00000 0 -9464828.943 -4703084.300 23189660.956 10 0 57842 1800.00000 0 -8294178.835 -7309377.965 22955997.746 10 0 57842 2700.00000 0 -7341848.190 -9944032.321 22275034.078 10 0 57842 3600.00000 0 -6621381.613 -12537282.009 21159794.493 10 0 57842 4500.00000 0 -6133627.542 -15019004.187 19631816.141 10 0 57842 5400.00000 0 -5866850.605 -17321462.802 17720741.412 10 0 57842 6300.00000 0 -5797392.409 -19381969.176 15463746.408 10 0 57842 7200.00000 0 -5890853.083 -21145346.126 12904815.783 10 0 57842 8100.00000 0 -6103743.135 -22566090.862 10093878.023 10 0 57842 9000.00000 0 -6385534.598 -23610144.392 7085818.541 10 0 57842 9900.00000 0 -6681022.837 -24256191.841 3939391.038 10 0 57842 10800.00000 0 -6932896.600 -24496438.386 716050.033 10 0 57842 11700.00000 0 -7084404.785 -24336828.209 -2521270.648 10 0 57842 12600.00000 0 -7082004.187 -23796698.093 -5709407.225 10 0 57842 13500.00000 0 -6877873.557 -22907881.908 -8786216.591 10 0 57842 14400.00000 0 -6432185.449 -21713305.936 -11691801.816 10 0 57842 15300.00000 0 -5715038.350 -20265136.831 -14369687.022 10 0 57842 16200.00000 0 -4707966.727 -18622562.860 -16767917.792 10 0 57842 17100.00000 0 -3404965.324 -16849304.166 -18840065.507 10 0 57842 18000.00000 0 -1812985.195 -15010958.567 -20546116.451 10 0 57842 18900.00000 0 48118.280 -13172295.359 -21853229.662 10 0 57842 19800.00000 0 2146182.029 -11394610.705 -22736350.530 10 0 57842 20700.00000 0 4437850.307 -9733254.537 -23178670.337 10 0 57842 21600.00000 0 6870160.681 -8235430.674 -23171925.176 10 0 57842 22500.00000 0 9382534.445 -6938359.631 -22716530.742 10 0 57842 23400.00000 0 11909088.717 -5867877.976 -21821552.420 10 0 57842 24300.00000 0 14381174.947 -5037529.564 -20504512.911 10 0 57842 25200.00000 0 16730039.812 -4448183.617 -18791042.267 10 0 57842 26100.00000 0 18889499.815 -4088192.988 -16714377.647 10 0 57842 27000.00000 0 20798520.781 -3934083.931 -14314722.491 10 0 57842 27900.00000 0 22403597.419 -3951747.166 -11638476.873 10 0 57842 28800.00000 0 23660836.176 -4098079.773 -8737353.005 10 0 57842 29700.00000 0 24537656.659 -4323009.156 -5667391.610 10 0 57842 30600.00000 0 25014042.194 -4571814.753 -2487896.592 10 0 57842 31500.00000 0 25083288.143 -4787650.957 739692.908 10 0 57842 32400.00000 0 24752216.968 -4914166.273 3952972.934 10 0 57842 33300.00000 0 24040850.554 -4898109.495 7089766.417 10 0 57842 34200.00000 0 22981552.453 -4691813.851 10089314.277 10 0 57842 35100.00000 0 21617674.441 -4255454.640 12893443.870 10 0 57842 36000.00000 0 20001762.245 -3558984.728 15447692.829 10 0 57842 36900.00000 0 18193393.713 -2583665.181 17702366.777 10 0 57842 37800.00000 0 16256738.131 -1323124.604 19613510.428 10 0 57842 38700.00000 0 14257937.346 216100.046 21143772.883 10 0 57842 39600.00000 0 12262417.239 2014566.968 22263149.575 10 0 57842 40500.00000 0 10332241.491 4040480.693 22949585.451 10 0 57842 41400.00000 0 8523618.299 6250771.277 23189426.376 10 0 57842 42300.00000 0 6884664.932 8592659.465 22977708.387 10 0 57842 43200.00000 0 5453524.602 11005645.078 22318277.517 10 0 57842 44100.00000 0 4256915.674 13423837.468 21223736.060 10 0 57842 45000.00000 0 3309175.362 15778531.669 19715214.666 10 0 57842 45900.00000 0 2611839.142 18000922.822 17821973.196 10 0 57842 46800.00000 0 2153774.346 20024844.740 15580836.979 10 0 57842 47700.00000 0 1911862.613 21789416.668 13035478.812 10 0 57842 48600.00000 0 1852202.051 23241485.662 10235560.601 10 0 57842 49500.00000 0 1931777.280 24337760.291 7235751.864 10 0 57842 50400.00000 0 2100525.035 25046544.347 4094645.437 10 0 57842 51300.00000 0 2303705.585 25348996.405 873593.186 10 0 57842 52200.00000 0 2484476.835 25239861.693 -2364513.561 10 0 57842 53100.00000 0 2586559.190 24727645.553 -5556492.683 10 0 57842 54000.00000 0 2556875.519 23834222.278 -8640122.476 10 0 57842 54900.00000 0 2348052.006 22593897.440 -11555369.002 10 0 57842 55800.00000 0 1920672.228 21051965.466 -14245563.973 10 0 57842 56700.00000 0 1245188.068 19262825.637 -16658509.300 10 0 57842 57600.00000 0 303406.381 17287738.083 -18747486.526 10 0 57842 58500.00000 0 -910510.836 15192316.104 -20472151.919 10 0 57842 59400.00000 0 -2389574.013 13043861.320 -21799300.981 10 0 57842 60300.00000 0 -4114039.916 10908653.772 -22703489.282 10 0 57842 61200.00000 0 -6052027.437 8849309.954 -23167499.614 10 0 57842 62100.00000 0 -8160648.368 6922317.757 -23182648.780 10 0 57842 63000.00000 0 -10387605.186 5175848.989 -22748930.339 10 0 57842 63900.00000 0 -12673188.908 3647938.002 -21874992.618 10 0 57842 64800.00000 0 -14952594.256 2365099.114 -20577954.121 10 0 57842 65700.00000 0 -17158456.787 1341437.263 -18883061.038 10 0 57842 66600.00000 0 -19223507.969 578286.003 -16823194.111 10 0 57842 67500.00000 0 -21083239.733 64385.356 -14438234.401 10 0 57842 68400.00000 0 -22678469.846 -223409.852 -11774299.623 10 0 57842 69300.00000 0 -23957703.398 -318921.968 -8882864.928 10 0 57842 70200.00000 0 -24879193.973 -264993.895 -5819783.740 10 0 57842 71100.00000 0 -25412620.115 -111453.170 -2644226.019 10 0 57842 72000.00000 0 -25540307.995 87218.487 582447.068 10 0 57842 72900.00000 0 -25257949.574 274413.162 3797851.935 10 0 57842 73800.00000 0 -24574785.826 394016.977 6939773.700 10 0 57842 74700.00000 0 -23513246.360 393013.123 9947357.771 10 0 57842 75600.00000 0 -22108058.984 223958.563 12762279.841 10 0 57842 76500.00000 0 -20404864.518 -152770.006 15329872.345 10 0 57842 77400.00000 0 -18458392.724 -767056.274 17600185.819 10 0 57842 78300.00000 0 -16330273.520 -1637532.819 19528964.636 10 0 57842 79200.00000 0 -14086573.067 -2770543.785 21078517.863 10 0 57842 80100.00000 0 -11795156.197 -4159628.099 22218467.600 10 0 57842 81000.00000 0 -9522984.312 -5785548.115 22926359.303 10 0 57842 81900.00000 0 -7333461.106 -7616865.878 23188120.919 10 0 57842 82800.00000 0 -5283937.107 -9611046.080 22998360.340 10 0 57842 83700.00000 0 -3423477.866 -11716042.440 22360493.723 10 0 57842 84600.00000 0 -1790989.970 -13872303.425 21286700.355 10 0 57842 85500.00000 0 -413784.543 -16015114.820 19797703.280 10 0 57843 0.00000 0 693360.579 -18077181.740 17922378.479 10 0 57843 900.00000 0 1528599.592 -19991341.691 15697198.747 10 0 57843 1800.00000 0 2102861.692 -21693294.128 13165523.185 10 0 57843 2700.00000 0 2439144.004 -23124229.722 10376745.025 10 0 57843 3600.00000 0 2571286.381 -24233248.031 7385315.669 10 0 57843 4500.00000 0 2542280.347 -24979459.006 4249664.774 10 0 57843 5400.00000 0 2402186.353 -25333678.720 1031039.183 10 0 57843 6300.00000 0 2205750.005 -25279646.548 -2207714.665 10 0 57843 7200.00000 0 2009821.157 -24814712.082 -5403398.705 10 0 57843 8100.00000 0 1870688.131 -23949963.158 -8493715.039 10 0 57843 9000.00000 0 1841442.671 -22709790.684 -11418495.117 10 0 57843 9900.00000 0 1969489.335 -21130910.366 -14120880.610 10 0 57843 10800.00000 0 2294306.150 -19260884.637 -16548432.052 10 0 57843 11700.00000 0 2845551.898 -17156209.163 -18654143.320 10 0 57843 12600.00000 0 3641599.753 -14880046.368 -20397342.613 10 0 57843 13500.00000 0 4688558.351 -12499702.563 -21744463.577 10 0 57843 14400.00000 0 5979820.245 -10083955.063 -22669673.291 10 0 57843 15300.00000 0 7496155.221 -7700341.062 -23155347.007 10 0 57843 16200.00000 0 9206343.169 -5412520.391 -23192382.791 10 0 57843 17100.00000 0 11068318.896 -3277820.262 -22780352.236 10 0 57843 18000.00000 0 13030780.342 -1345061.781 -21927486.437 10 0 57843 18900.00000 0 15035192.993 347244.388 -20650499.184 10 0 57843 19800.00000 0 17018107.516 1772261.365 -18974251.977 10 0 57843 20700.00000 0 18913695.092 2915694.808 -16931267.996 10 0 57843 21600.00000 0 20656396.476 3776133.841 -14561104.432 10 0 57843 22500.00000 0 22183576.323 4364852.301 -11909594.811 10 0 57843 23400.00000 0 23438074.114 4705080.332 -9027975.022 10 0 57843 24300.00000 0 24370547.216 4830777.793 -5971908.649 10 0 57843 25200.00000 0 24941509.862 4784961.137 -2800428.854 10 0 57843 26100.00000 0 25122983.935 4617653.601 425184.240 10 0 57843 27000.00000 0 24899693.023 4383544.044 3642570.623 10 0 57843 27900.00000 0 24269749.575 4139451.856 6789480.839 10 0 57843 28800.00000 0 23244805.478 3941703.594 9804967.948 10 0 57843 29700.00000 0 21849658.239 3843531.039 12630558.990 10 0 57843 30600.00000 0 20121327.197 3892599.910 15211383.994 10 0 57843 31500.00000 0 18107636.130 4128773.567 17497240.922 10 0 57843 32400.00000 0 15865359.070 4582206.766 19443576.008 10 0 57843 33300.00000 0 13458004.456 5271851.369 21012360.147 10 0 57843 34200.00000 0 10953328.188 6204439.095 22172843.591 10 0 57843 35100.00000 0 8420677.805 7373986.856 22902173.371 10 0 57843 36000.00000 0 5928277.548 8761848.587 23185860.120 10 0 57843 36900.00000 0 3540567.246 10337314.526 23018083.686 10 0 57843 37800.00000 0 1315706.197 12058735.795 22401829.895 10 0 57843 38700.00000 0 -696653.151 13875129.691 21348854.025 10 0 57843 39600.00000 0 -2457227.647 15728200.169 19879469.968 10 0 57843 40500.00000 0 -3938523.074 17554689.857 18022167.677 10 0 57843 41400.00000 0 -5125750.537 19288965.109 15813065.139 10 0 57843 42300.00000 0 -6017200.440 20865724.787 13295204.856 10 0 57843 43200.00000 0 -6624058.242 22222717.609 10517708.375 10 0 57843 44100.00000 0 -6969670.242 23303351.863 7534805.805 10 0 57843 45000.00000 0 -7088291.575 24059085.473 4404760.396 10 0 57843 45900.00000 0 -7023371.238 24451493.713 1188710.739 10 0 57843 46800.00000 0 -6825449.168 24453925.723 -2050544.763 10 0 57843 47700.00000 0 -6549757.251 24052678.890 -5249795.120 10 0 57843 48600.00000 0 -6253628.873 23247641.260 -8346669.051 10 0 57843 49500.00000 0 -5993829.616 22052375.358 -11280865.929 10 0 57843 50400.00000 0 -5823924.530 20493641.076 -13995339.610 10 0 57843 51300.00000 0 -5791795.236 18610379.441 -16437411.111 10 0 57843 52200.00000 0 -5937412.854 16452201.975 -18559788.140 10 0 57843 53100.00000 0 -6290960.979 14077451.076 -20321471.970 10 0 57843 54000.00000 0 -6871387.317 11550914.398 -21688535.179 10 0 57843 54900.00000 0 -7685443.785 8941289.905 -22634756.813 10 0 57843 55800.00000 0 -8727253.845 6318507.887 -23142104.717 10 0 57843 56700.00000 0 -9978423.557 3751021.033 -23201058.010 10 0 57843 57600.00000 0 -11408690.168 1303173.991 -22810765.770 10 0 57843 58500.00000 0 -12977079.873 -967240.281 -21979040.924 10 0 57843 59400.00000 0 -14633525.758 -3011138.597 -20722191.245 10 0 57843 60300.00000 0 -16320878.317 -4789933.547 -19064691.878 10 0 57843 61200.00000 0 -17977225.267 -6276876.338 -17038706.452 10 0 57843 62100.00000 0 -19538424.997 -7457903.771 -14683466.059 10 0 57843 63000.00000 0 -20940749.596 -8331956.778 -12044517.608 10 0 57843 63900.00000 0 -22123528.863 -8910759.298 -9172855.216 10 0 57843 64800.00000 0 -23031686.772 -9218068.220 -6123950.066 10 0 57843 65700.00000 0 -23618065.966 -9288426.453 -2956695.981 10 0 57843 66600.00000 0 -23845444.285 -9165471.370 267710.491 10 0 57843 67500.00000 0 -23688159.594 -8899869.098 3486935.418 10 0 57843 68400.00000 0 -23133274.844 -8546960.528 6638697.235 10 0 57843 69300.00000 0 -22181233.815 -8164216.963 9661959.092 10 0 57843 70200.00000 0 -20845978.691 -7808611.478 12498101.746 10 0 57843 71100.00000 0 -19154522.473 -7534015.966 15092055.067 10 0 57843 72000.00000 0 -17145991.721 -7388733.215 17393366.523 10 0 57843 72900.00000 0 -14870176.974 -7413268.277 19357186.024 10 0 57843 73800.00000 0 -12385648.686 -7638433.982 20945147.775 10 0 57843 74700.00000 0 -9757514.910 -8083871.960 22126131.273 10 0 57843 75600.00000 0 -7054912.156 -8757053.651 22876885.773 10 0 57843 76500.00000 0 -4348332.457 -9652805.967 23182504.800 10 0 57843 77400.00000 0 -1706897.224 -10753384.433 23036739.924 10 0 57843 78300.00000 0 804308.833 -12029093.621 22442146.005 10 0 57843 79200.00000 0 3126732.228 -13439431.408 21410053.304 10 0 57843 80100.00000 0 5210568.763 -14934711.057 19960365.224 10 0 57843 81000.00000 0 7016611.481 -16458094.333 18121184.125 10 0 57843 81900.00000 0 8517650.133 -17947950.725 15928271.201 10 0 57843 82800.00000 0 9699362.582 -19340443.175 13424350.274 10 0 57843 83700.00000 0 10560660.272 -20572230.344 10658268.849 10 0 57843 84600.00000 0 11113473.396 -21583169.848 7684033.214 10 0 57843 85500.00000 0 11381985.567 -22318906.301 4559737.536 10 0 57844 0.00000 0 11401351.886 -22733232.831 1346409.490 10 0 57844 900.00000 0 11215956.841 -22790123.970 -1893203.434 10 0 57844 1800.00000 0 10877288.262 -22465353.645 -5095879.946 10 0 57844 2700.00000 0 10441520.603 -21747627.071 -8199177.960 10 0 57844 3600.00000 0 9966912.528 -20639180.781 -11142667.213 10 0 57844 4500.00000 0 9511131.890 -19155824.584 -13869116.022 10 0 57844 5400.00000 0 9128623.287 -17326425.613 -16325607.973 10 0 57844 6300.00000 0 8868130.944 -15191857.573 -18464566.455 10 0 57844 7200.00000 0 8770482.038 -12803461.247 -20244667.392 10 0 57844 8100.00000 0 8866723.644 -10221082.443 -21631623.544 10 0 57844 9000.00000 0 9176690.735 -7510770.672 -22598826.812 10 0 57844 9900.00000 0 9708063.829 -4742235.412 -23127838.126 10 0 57844 10800.00000 0 10455953.958 -1986165.758 -23208717.763 10 0 57844 11700.00000 0 11403030.456 688475.979 -22840192.001 10 0 57844 12600.00000 0 12520184.479 3217075.942 -22029654.990 10 0 57844 13500.00000 0 13767699.288 5541799.237 -20793007.551 10 0 57844 14400.00000 0 15096877.720 7613731.339 -19154337.275 10 0 57844 15300.00000 0 16452058.808 9394644.509 -17145446.771 10 0 57844 16200.00000 0 17772939.971 10858319.026 -14805239.302 10 0 57844 17100.00000 0 18997108.870 11991367.131 -12178973.193 10 0 57844 18000.00000 0 20062680.649 12793527.724 -9317398.546 10 0 57844 18900.00000 0 20910931.929 13277421.287 -6275791.675 10 0 57844 19800.00000 0 21488822.970 13467776.384 -3112904.376 10 0 57844 20700.00000 0 21751303.695 13400160.388 110153.197 10 0 57844 21600.00000 0 21663307.827 13119267.408 3331076.077 10 0 57844 22500.00000 0 21201351.749 12676834.505 6487553.475 10 0 57844 23400.00000 0 20354670.573 12129272.657 9518461.410 10 0 57844 24300.00000 0 19125842.567 11535110.949 12365036.999 10 0 57844 25200.00000 0 17530873.823 10952360.527 14972012.401 10 0 57844 26100.00000 0 15598737.205 10435908.541 17288686.805 10 0 57844 27000.00000 0 13370382.028 10035051.603 19269915.785 10 0 57844 27900.00000 0 10897252.840 9791272.962 20876998.571 10 0 57844 28800.00000 0 8239376.356 9736357.990 22078445.327 10 0 57844 29700.00000 0 5463093.711 9890928.877 22850608.622 10 0 57844 30600.00000 0 2638530.463 10263462.335 23178165.574 10 0 57844 31500.00000 0 -163091.616 10849834.067 23054439.718 10 0 57844 32400.00000 0 -2872189.829 11633411.769 22481554.689 10 0 57844 33300.00000 0 -5423489.021 12585695.242 21470414.916 10 0 57844 34200.00000 0 -7758511.456 13667478.794 20040511.947 10 0 57844 35100.00000 0 -9827783.278 14830488.563 18219558.630 10 0 57844 36000.00000 0 -11592664.264 16019426.651 16042956.980 10 0 57844 36900.00000 0 -13026723.118 17174335.912 13553109.367 10 0 57844 37800.00000 0 -14116599.865 18233184.829 10798586.212 10 0 57844 38700.00000 0 -14862318.810 19134561.920 7833166.781 10 0 57844 39600.00000 0 -15277039.198 19820363.759 4714772.904 10 0 57844 40500.00000 0 -15386255.199 20238360.781 1504317.964 10 0 57844 41400.00000 0 -15226480.816 20344530.075 -1735504.362 10 0 57844 42300.00000 0 -14843477.699 20105054.595 -4941465.625 10 0 57844 43200.00000 0 -14290103.704 19497902.860 -8051055.796 10 0 57844 44100.00000 0 -13623876.196 18513921.653 -11003717.614 10 0 57844 45000.00000 0 -12904356.065 17157395.655 -13742036.199 10 0 57844 45900.00000 0 -12190465.504 15446051.157 -16212859.734 10 0 57844 46800.00000 0 -11537854.631 13410504.897 -18368328.951 10 0 57844 47700.00000 0 -10996429.040 11093182.830 -20166795.701 10 0 57844 48600.00000 0 -10608142.542 8546755.728 -21573613.812 10 0 57844 49500.00000 0 -10405147.170 5832158.404 -22561788.539 10 0 57844 50400.00000 0 -10408376.726 3016276.233 -23112474.019 10 0 57844 51300.00000 0 -10626621.286 169395.540 -23215311.427 10 0 57844 52200.00000 0 -11056129.270 -2637476.633 -22868603.606 10 0 57844 53100.00000 0 -11680751.566 -5335313.293 -22079324.895 10 0 57844 54000.00000 0 -12472619.848 -7859678.756 -20862967.770 10 0 57844 54900.00000 0 -13393329.388 -10153144.681 -19243230.503 10 0 57844 55800.00000 0 -14395576.237 -12167413.480 -17251552.621 10 0 57844 56700.00000 0 -15425180.299 -13865064.048 -14926507.243 10 0 57844 57600.00000 0 -16423410.325 -15220850.150 -12313061.616 10 0 57844 58500.00000 0 -17329514.674 -16222499.966 -9461719.250 10 0 57844 59400.00000 0 -18083353.290 -16870985.461 -6427558.982 10 0 57844 60300.00000 0 -18628022.199 -17180251.704 -3269188.005 10 0 57844 61200.00000 0 -18912361.855 -17176418.017 -47627.547 10 0 57844 62100.00000 0 -18893245.154 -16896484.401 3174848.866 10 0 57844 63000.00000 0 -18537549.587 -16386596.845 6335903.642 10 0 57844 63900.00000 0 -17823730.550 -15699943.295 9374328.042 10 0 57844 64800.00000 0 -16742928.850 -14894367.442 12231217.826 10 0 57844 65700.00000 0 -15299564.246 -14029799.389 14851109.629 10 0 57844 66600.00000 0 -13511387.830 -13165610.188 17183056.379 10 0 57844 67500.00000 0 -11408988.212 -12358000.847 19181621.102 10 0 57844 68400.00000 0 -9034769.003 -11657535.473 20807769.547 10 0 57844 69300.00000 0 -6441437.169 -11106922.704 22029643.691 10 0 57844 70200.00000 0 -3690062.326 -10739139.765 22823200.182 10 0 57844 71100.00000 0 -847785.255 -10575979.584 23172700.076 10 0 57844 72000.00000 0 2014730.819 -10627084.017 23071038.830 10 0 57844 72900.00000 0 4826001.343 -10889506.082 22519908.416 10 0 57844 73800.00000 0 7516462.057 -11347821.824 21529786.635 10 0 57844 74700.00000 0 10021136.599 -11974789.138 20119752.043 10 0 57844 75600.00000 0 12282118.172 -12732527.388 18317126.525 10 0 57844 76500.00000 0 14250760.543 -13574169.083 16156951.157 10 0 57844 77400.00000 0 15889485.403 -14445914.140 13681304.798 10 0 57844 78300.00000 0 17173129.279 -15289399.440 10938478.417 10 0 57844 79200.00000 0 18089772.720 -16044282.235 7982021.616 10 0 57844 80100.00000 0 18641016.654 -16650926.234 4869680.992 10 0 57844 81000.00000 0 18841694.881 -17053074.402 1662252.649 10 0 57844 81900.00000 0 18719036.125 -17200392.920 -1577626.818 10 0 57844 82800.00000 0 18311313.041 -17050776.351 -4786724.865 10 0 57844 83700.00000 0 17666037.877 -16572314.602 -7902466.510 10 0 57844 84600.00000 0 16837783.934 -15744837.263 -10864170.283 10 0 57844 85500.00000 0 15885727.864 -14560969.548 -13614240.649 10 0 57845 0.00000 0 14871019.268 -13026655.582 -16099292.570 10 0 57845 900.00000 0 13854090.905 -11161127.330 -18271186.121 10 0 57845 1800.00000 0 12892023.670 -8996322.990 -20087950.607 10 0 57845 2700.00000 0 12036078.984 -6575778.882 -21514582.112 10 0 57845 3600.00000 0 11329500.404 -3953044.263 -22523700.050 10 0 57845 4500.00000 0 10805676.591 -1189685.419 -23096052.158 10 0 57845 5400.00000 0 10486740.193 1647036.910 -23220860.497 10 0 57845 6300.00000 0 10382659.098 4486720.421 -22896004.057 10 0 57845 7200.00000 0 10490855.565 7258499.184 -22128036.590 10 0 57845 8100.00000 0 10796366.809 9893737.135 -20932041.100 10 0 57845 9000.00000 0 11272538.345 12328627.638 -19331325.121 10 0 57845 9900.00000 0 11882219.753 14506593.843 -17356963.386 10 0 57845 10800.00000 0 12579412.105 16380393.134 -15047196.917 10 0 57845 11700.00000 0 13311298.180 17913841.104 -12446699.677 10 0 57845 12600.00000 0 14020571.015 19083085.898 -9605726.152 10 0 57845 13500.00000 0 14647964.355 19877381.994 -6579155.073 10 0 57845 14400.00000 0 15134880.206 20299332.711 -3425446.234 10 0 57845 15300.00000 0 15426004.610 20364592.102 -205529.039 10 0 57845 16200.00000 0 15471802.980 20101038.891 3018357.351 10 0 57845 17100.00000 0 15230790.898 19547456.585 6183851.403 10 0 57845 18000.00000 0 14671485.086 18751774.120 9229662.362 10 0 57845 18900.00000 0 13773952.023 17768939.584 12096747.195 10 0 57845 19800.00000 0 12530887.782 16658514.882 14729449.346 10 0 57845 20700.00000 0 10948181.704 15482091.020 17076577.587 10 0 57845 21600.00000 0 9044937.594 14300631.539 19092404.242 10 0 57845 22500.00000 0 6852948.327 13171855.018 20737563.180 10 0 57845 23400.00000 0 4415642.575 12147766.531 21979829.506 10 0 57845 24300.00000 0 1786544.291 11272442.149 22794764.956 10 0 57845 25200.00000 0 -972693.840 10580160.580 23166215.188 10 0 57845 26100.00000 0 -3794603.415 10093961.888 23086647.819 10 0 57845 27000.00000 0 -6608465.304 9824695.645 22557322.933 10 0 57845 27900.00000 0 -9343020.828 9770600.424 21588290.955 10 0 57845 28800.00000 0 -11929216.322 9917434.184 20198216.153 10 0 57845 29700.00000 0 -14302866.231 10239151.544 18414027.604 10 0 57845 30600.00000 0 -16407122.575 10699100.439 16270403.096 10 0 57845 31500.00000 0 -18194646.141 11251688.020 13809095.197 10 0 57845 32400.00000 0 -19629387.155 11844445.051 11078112.340 10 0 57845 33300.00000 0 -20687899.547 12420400.380 8130771.168 10 0 57845 34200.00000 0 -21360132.863 12920663.229 5024639.697 10 0 57845 35100.00000 0 -21649668.443 13287101.667 1820393.402 10 0 57845 36000.00000 0 -21573390.655 13465001.271 -1419391.453 10 0 57845 36900.00000 0 -21160608.513 13405588.834 -4631481.331 10 0 57845 37800.00000 0 -20451666.968 13068312.011 -7753239.232 10 0 57845 38700.00000 0 -19496109.181 12422776.681 -10723862.183 10 0 57845 39600.00000 0 -18350470.232 11450259.104 -13485576.455 10 0 57845 40500.00000 0 -17075798.215 10144728.719 -15984766.034 10 0 57845 41400.00000 0 -15735009.594 8513338.812 -18173011.948 10 0 57845 42300.00000 0 -14390191.975 6576365.409 -20008022.407 10 0 57845 43200.00000 0 -13099968.618 4366598.213 -21454436.707 10 0 57845 44100.00000 0 -11917035.299 1928210.412 -22484488.902 10 0 57845 45000.00000 0 -10885971.886 -684844.136 -23078520.358 10 0 57845 45900.00000 0 -10041418.493 -3410838.760 -23225333.602 10 0 57845 46800.00000 0 -9406690.132 -6182603.108 -22922382.941 10 0 57845 47700.00000 0 -8992885.107 -8930077.145 -22175800.290 10 0 57845 48600.00000 0 -8798521.641 -11582985.188 -21000257.574 10 0 57845 49500.00000 0 -8809715.406 -14073520.870 -19418669.642 10 0 57845 50400.00000 0 -9000888.516 -16338933.860 -17461744.223 10 0 57845 51300.00000 0 -9335978.944 -18323913.647 -15167387.818 10 0 57845 52200.00000 0 -9770099.066 -19982674.099 -12579978.557 10 0 57845 53100.00000 0 -10251573.928 -21280654.602 -9749519.309 10 0 57845 54000.00000 0 -10724274.415 -22195769.200 -6730686.126 10 0 57845 54900.00000 0 -11130148.472 -22719153.299 -3581788.899 10 0 57845 55800.00000 0 -11411845.374 -22855377.728 -363662.815 10 0 57845 56700.00000 0 -11515323.950 -22622121.563 2861489.632 10 0 57845 57600.00000 0 -11392336.069 -22049317.042 6031285.180 10 0 57845 58500.00000 0 -11002681.379 -21177801.482 9084353.186 10 0 57845 59400.00000 0 -10316138.298 -20057531.411 11961513.880 10 0 57845 60300.00000 0 -9313989.091 -18745432.237 14606919.479 10 0 57845 61200.00000 0 -7990073.300 -17302972.103 16969136.438 10 0 57845 62100.00000 0 -6351322.874 -15793560.298 19002148.048 10 0 57845 63000.00000 0 -4417753.538 -14279878.258 20666257.743 10 0 57845 63900.00000 0 -2221909.469 -12821254.533 21928874.935 10 0 57845 64800.00000 0 192218.992 -11471193.708 22765167.312 10 0 57845 65700.00000 0 2770762.777 -10275163.390 23158565.672 10 0 57845 66600.00000 0 5451964.121 -9268733.094 23101109.992 10 0 57845 67500.00000 0 8168508.564 -8476144.451 22593628.324 10 0 57845 68400.00000 0 10850103.294 -7909374.337 21645743.245 10 0 57845 69300.00000 0 13426195.008 -7567731.936 20275703.937 10 0 57845 70200.00000 0 15828713.812 -7438008.052 18510045.556 10 0 57845 71100.00000 0 17994727.875 -7495171.413 16383081.166 10 0 57845 72000.00000 0 19868896.438 -7703583.044 13936235.280 10 0 57845 72900.00000 0 21405616.990 -8018677.197 11217231.685 10 0 57845 73800.00000 0 22570775.036 -8389036.782 8279151.627 10 0 57845 74700.00000 0 23343021.714 -8758773.839 5179381.773 10 0 57845 75600.00000 0 23714524.900 -9070111.971 1978473.950 10 0 57845 76500.00000 0 23691162.249 -9266058.738 -1261059.105 10 0 57845 77400.00000 0 23292148.883 -9293052.068 -4475986.130 10 0 57845 78300.00000 0 22549117.125 -9103465.996 -7603611.310 10 0 57845 79200.00000 0 21504689.345 -8657867.508 -10583013.222 10 0 57845 80100.00000 0 20210606.830 -7926927.501 -13356242.718 10 0 57845 81000.00000 0 18725496.325 -6892904.329 -15869455.223 10 0 57845 81900.00000 0 17112370.847 -5550637.258 -18073954.926 10 0 57845 82800.00000 0 15435972.006 -3908008.630 -19927130.668 10 0 57845 83700.00000 0 13760066.728 -1985856.357 -21393266.351 10 0 57845 84600.00000 0 12144812.169 182658.355 -22444211.706 10 0 57845 85500.00000 0 10644298.631 2553200.231 -23059902.398 99